Flag for Germany Weather past 2 weeks in Itzehoe, Schleswig-Holstein, Germany

Now
48 °F

Cool.


Feels Like: 46 °F
Forecast: 47 / 55 °F
Wind: 5 mph from West

Location: Hohn

Current Time: Oct 23, 2014 at 2:59:45 AM

Latest Report: Oct 23, 2014 at 2:20 AM


Visibility: 4 mi

Pressure: 30.07 "Hg

Humidity: 94%

Dew point: 46 °F

Location of ItzehoeLocation

Historic Weather in Itzehoe — Graph

°F

Itzehoe temperature yesterday

Maximum temperature yesterday: 59 °F (at 2:20 PM)
Minimum temperature yesterday: 48 °F (at 2:20 AM)
Average temperature yesterday: 52 °F

Past Weeks' High & Low Weather Summary

 TemperatureHumidityPressure
High64 °F (Oct 9, 1:20 PM)100% (Oct 11, 4:20 AM)30.12 "Hg (Oct 11, 4:20 AM)
Low43 °F (Oct 11, 7:20 AM)63% (Oct 20, 3:20 PM)29.30 "Hg (Oct 21, 7:20 PM)
Average55 °F88%29.77 "Hg
* Reported Oct 8 1:20 AM — Oct 23 1:20 AM, Itzehoe, Weather by CustomWeather, © 2014

Note: Actual official high and low records may vary slightly from our data, if they occured in-between our weather recording intervals... More about our weather records

Advertising

Itzehoe weather history for previous 24 hours

 ConditionsComfort  
Time TempWeatherWind HumidityBarometerVisibility
1:20 AM
Oct 23
46 °FCool.8 mph93%30.04 "Hg4 mi
12:20 AM50 °FCool.9 mph88%30.04 "Hg4 mi
11:20 PM
Oct 22
50 °FCool.9 mph94%30.01 "Hg4 mi
10:20 PM50 °FCool.9 mph100%30.01 "Hg2 mi
9:20 PM52 °FCool.12 mph94%29.98 "Hg2 mi
8:20 PM52 °FCool.10 mph94%29.95 "Hg4 mi
7:20 PM52 °FCool.12 mph94%29.92 "Hg5 mi
6:56 PM52 °FPartly sunny.12 mph94%29.92 "HgN/A
6:20 PM52 °FPartly sunny.13 mph94%29.92 "HgN/A
5:20 PM54 °FBroken clouds.16 mph88%29.86 "HgN/A
4:57 PM55 °FPartly sunny.15 mph82%29.86 "HgN/A
4:20 PM57 °FPassing clouds.15 mph77%29.83 "HgN/A
3:20 PM59 °FPassing clouds.14 mph68%29.80 "HgN/A
2:20 PM59 °FScattered clouds.10 mph72%29.77 "HgN/A
1:20 PM55 °FScattered clouds.10 mph77%29.74 "HgN/A
12:20 PM55 °FPartly sunny.9 mph82%29.71 "HgN/A
11:20 AM54 °FPartly sunny.9 mph88%29.68 "HgN/A
10:20 AM50 °FBroken clouds.8 mph94%29.65 "HgN/A
9:20 AM50 °FBroken clouds.9 mph94%29.59 "HgN/A
8:20 AM50 °FPassing clouds.10 mph94%29.53 "HgN/A
7:20 AM52 °FPassing clouds.12 mph94%29.47 "HgN/A
6:53 AM52 °FPassing clouds.14 mph94%29.45 "HgN/A
6:20 AM52 °FPassing clouds.12 mph94%29.45 "HgN/A
5:55 AM52 °FPassing clouds.16 mph94%29.47 "HgN/A
5:20 AM52 °FSprinkles. Fog.20 mph94%29.45 "Hg2 mi
4:20 AM52 °FCool.18 mph88%29.47 "Hg4 mi
3:20 AM52 °FCool.9 mph82%29.45 "Hg5 mi
2:20 AM48 °FCool.8 mph94%29.45 "Hg5 mi
Weather by CustomWeather, © 2014

See weather overviewHow to use our weather pages